When you browse on this site, cookies collect data to enhance your experience and personalize the content and advertising you see.
Visit our Privacy Policy to learn more. By continuing to use the site, you agree to this use of cookies and data.
  • In Hungary
  • List of Countries
  • For 7 days
  • Water Temperature
  • Weather Map
  • News
  • Weather Widgets
  • user-avatar
    Login

    Hourly Weather Gorodzisko

    Today, 11 December, Wednesday

    Time Temperature Precipitation Wind Pressure Humidity
    00:00 -1°C° 0 mm 4 mps 749 mmHg 79%
    01:00 -1°C° 0 mm 4 mps 749 mmHg 81%
    02:00 -1°C° 0 mm 3 mps 750 mmHg 84%
    03:00 -1°C° 0 mm 3 mps 749 mmHg 85%
    04:00 -1°C° 0 mm 3 mps 749 mmHg 86%
    05:00 -2°C° 0 mm 2 mps 749 mmHg 86%
    06:00 -2°C° 0 mm 2 mps 749 mmHg 87%
    07:00 0°C° 0 mm 1 mps 749 mmHg 87%
    08:00 0°C° 0 mm 1 mps 749 mmHg 87%
    09:00 0°C° 0 mm 1 mps 749 mmHg 83%
    10:00 +1°C° 0 mm 1 mps 749 mmHg 79%
    11:00 +1°C° 0 mm 1 mps 749 mmHg 75%
    12:00 +2°C° 0 mm 1 mps 749 mmHg 72%
    13:00 +2°C° 0 mm 1 mps 749 mmHg 70%
    14:00 +1°C° 0 mm 2 mps 748 mmHg 67%
    15:00 +1°C° 0 mm 2 mps 748 mmHg 71%
    16:00 -1°C° 0 mm 2 mps 747 mmHg 76%
    17:00 -2°C° 0 mm 2 mps 747 mmHg 80%
    18:00 -2°C° 0 mm 2 mps 747 mmHg 81%
    19:00 -2°C° 0 mm 3 mps 747 mmHg 83%
    20:00 -2°C° 0 mm 3 mps 747 mmHg 84%
    21:00 -2°C° 0 mm 3 mps 746 mmHg 83%
    22:00 -2°C° 0 mm 3 mps 746 mmHg 83%
    23:00 -2°C° 0 mm 3 mps 745 mmHg 82%

    Tomorrow, 12 December, Thursday

    Time Temperature Precipitation Wind Pressure Humidity
    00:00 -2°C° 0 mm 4 mps 745 mmHg 85%
    01:00 -2°C° 0 mm 4 mps 744 mmHg 87%
    02:00 -2°C° 0 mm 4 mps 744 mmHg 90%
    03:00 -1°C° 0.2 mm 5 mps 743 mmHg 92%
    04:00 0°C° 0.2 mm 5 mps 742 mmHg 94%
    05:00 0°C° 0.2 mm 5 mps 742 mmHg 96%
    06:00 0°C° 0.2 mm 5 mps 742 mmHg 96%
    07:00 +1°C° 0.2 mm 5 mps 741 mmHg 95%
    08:00 +1°C° 0.2 mm 4 mps 741 mmHg 94%
    09:00 +1°C° 0 mm 5 mps 741 mmHg 91%
    10:00 +1°C° 0 mm 5 mps 741 mmHg 88%
    11:00 +1°C° 0 mm 6 mps 741 mmHg 84%
    12:00 +1°C° 0 mm 5 mps 741 mmHg 83%
    13:00 +1°C° 0 mm 5 mps 741 mmHg 82%
    14:00 +1°C° 0 mm 4 mps 741 mmHg 81%
    15:00 +1°C° 0 mm 4 mps 741 mmHg 84%
    16:00 +1°C° 0 mm 4 mps 741 mmHg 87%
    17:00 0°C° 0 mm 5 mps 740 mmHg 90%
    18:00 0°C° 0 mm 4 mps 740 mmHg 88%
    19:00 +1°C° 0 mm 4 mps 740 mmHg 86%
    20:00 +1°C° 0 mm 4 mps 740 mmHg 84%
    21:00 +1°C° 0 mm 4 mps 739 mmHg 85%
    22:00 +1°C° 0 mm 4 mps 739 mmHg 86%
    23:00 +1°C° 0 mm 5 mps 739 mmHg 87%

    Day after tomorrow, 13 December, Friday

    Time Temperature Precipitation Wind Pressure Humidity
    00:00 +1°C° 0 mm 5 mps 738 mmHg 88%
    01:00 +1°C° 0 mm 5 mps 737 mmHg 88%
    02:00 +1°C° 0 mm 5 mps 737 mmHg 89%
    03:00 +1°C° 0 mm 5 mps 736 mmHg 88%
    04:00 +1°C° 0 mm 6 mps 735 mmHg 88%
    05:00 +1°C° 0 mm 6 mps 735 mmHg 87%
    06:00 +1°C° 0.1 mm 6 mps 734 mmHg 87%
    07:00 +1°C° 0.1 mm 6 mps 734 mmHg 87%
    08:00 +2°C° 0.1 mm 6 mps 733 mmHg 87%
    09:00 +2°C° 0.3 mm 7 mps 733 mmHg 87%
    10:00 +2°C° 0.3 mm 7 mps 733 mmHg 87%
    11:00 +2°C° 0.3 mm 7 mps 733 mmHg 86%
    12:00 +3°C° 0.1 mm 7 mps 732 mmHg 84%
    13:00 +3°C° 0.1 mm 7 mps 732 mmHg 82%
    14:00 +3°C° 0.1 mm 7 mps 732 mmHg 79%
    15:00 +3°C° 0 mm 6 mps 731 mmHg 80%
    16:00 +3°C° 0 mm 6 mps 731 mmHg 81%
    17:00 +3°C° 0 mm 6 mps 731 mmHg 82%
    18:00 +3°C° 0 mm 6 mps 731 mmHg 81%
    19:00 +3°C° 0 mm 6 mps 732 mmHg 80%
    20:00 +3°C° 0 mm 6 mps 732 mmHg 80%
    21:00 +3°C° 0 mm 6 mps 732 mmHg 81%
    22:00 +3°C° 0 mm 6 mps 732 mmHg 83%
    23:00 +3°C° 0 mm 6 mps 732 mmHg 84%

    14 December, Saturday

    Time Temperature Precipitation Wind Pressure Humidity
    00:00 +2°C° 0 mm 6 mps 732 mmHg 86%
    01:00 +2°C° 0 mm 6 mps 732 mmHg 87%
    02:00 +2°C° 0 mm 5 mps 732 mmHg 89%
    03:00 +2°C° 0 mm 5 mps 732 mmHg 89%
    04:00 +2°C° 0 mm 5 mps 732 mmHg 89%
    05:00 +2°C° 0 mm 5 mps 732 mmHg 89%
    06:00 +2°C° 0 mm 5 mps 732 mmHg 89%
    07:00 +2°C° 0 mm 6 mps 733 mmHg 89%
    08:00 +2°C° 0 mm 6 mps 733 mmHg 89%
    09:00 +2°C° 0 mm 6 mps 733 mmHg 86%
    10:00 +2°C° 0 mm 6 mps 733 mmHg 84%
    11:00 +3°C° 0 mm 6 mps 733 mmHg 81%
    12:00 +3°C° 0.1 mm 6 mps 733 mmHg 82%
    13:00 +3°C° 0.1 mm 6 mps 733 mmHg 82%
    14:00 +3°C° 0.1 mm 6 mps 732 mmHg 83%
    15:00 +3°C° 0.1 mm 6 mps 732 mmHg 84%
    16:00 +3°C° 0.1 mm 6 mps 732 mmHg 85%
    17:00 +3°C° 0.1 mm 6 mps 732 mmHg 85%
    18:00 +2°C° 0.1 mm 6 mps 732 mmHg 85%
    19:00 +2°C° 0.1 mm 6 mps 732 mmHg 85%
    20:00 +2°C° 0.1 mm 7 mps 732 mmHg 85%
    21:00 +2°C° 0.2 mm 7 mps 733 mmHg 83%
    22:00 +2°C° 0.2 mm 7 mps 733 mmHg 81%
    23:00 +3°C° 0.2 mm 7 mps 733 mmHg 79%

    15 December, Sunday

    Time Temperature Precipitation Wind Pressure Humidity
    00:00 +2°C° 0 mm 7 mps 734 mmHg 79%
    01:00 +2°C° 0 mm 6 mps 734 mmHg 79%
    02:00 +1°C° 0 mm 6 mps 734 mmHg 79%
    03:00 +2°C° 0 mm 7 mps 735 mmHg 80%
    04:00 +2°C° 0 mm 7 mps 735 mmHg 80%
    05:00 +2°C° 0 mm 8 mps 735 mmHg 81%
    06:00 +2°C° 0.1 mm 8 mps 735 mmHg 78%
    07:00 +2°C° 0.1 mm 7 mps 736 mmHg 75%
    08:00 +2°C° 0.1 mm 7 mps 737 mmHg 72%
    09:00 +2°C° 0 mm 7 mps 737 mmHg 69%
    10:00 +2°C° 0 mm 7 mps 738 mmHg 65%
    11:00 +2°C° 0 mm 7 mps 739 mmHg 62%
    12:00 +2°C° 0 mm 6 mps 739 mmHg 61%
    13:00 +3°C° 0 mm 6 mps 739 mmHg 60%
    14:00 +3°C° 0 mm 5 mps 739 mmHg 59%
    15:00 +3°C° 0 mm 5 mps 739 mmHg 67%
    16:00 +3°C° 0 mm 5 mps 739 mmHg 75%
    17:00 +3°C° 0 mm 5 mps 738 mmHg 83%
    18:00 +3°C° 0.4 mm 6 mps 738 mmHg 83%
    19:00 +4°C° 0.4 mm 7 mps 737 mmHg 83%
    20:00 +4°C° 0.4 mm 8 mps 737 mmHg 83%
    21:00 +4°C° 0 mm 8 mps 738 mmHg 77%
    22:00 +4°C° 0 mm 8 mps 739 mmHg 71%
    23:00 +5°C° 0 mm 9 mps 739 mmHg 65%

    16 December, Monday

    Time Temperature Precipitation Wind Pressure Humidity
    00:00 +4°C° 0 mm 8 mps 740 mmHg 66%
    01:00 +3°C° 0 mm 7 mps 741 mmHg 67%
    02:00 +2°C° 0 mm 7 mps 742 mmHg 68%
    03:00 +2°C° 0 mm 7 mps 743 mmHg 69%
    04:00 +1°C° 0 mm 6 mps 743 mmHg 69%
    05:00 +1°C° 0 mm 6 mps 744 mmHg 70%
    06:00 +1°C° 0 mm 6 mps 744 mmHg 70%
    07:00 +1°C° 0 mm 6 mps 745 mmHg 71%
    08:00 +1°C° 0 mm 6 mps 745 mmHg 71%
    09:00 +1°C° 0 mm 6 mps 746 mmHg 71%
    10:00 +1°C° 0 mm 6 mps 747 mmHg 71%
    11:00 +2°C° 0 mm 6 mps 747 mmHg 71%
    12:00 +2°C° 0 mm 5 mps 747 mmHg 69%
    13:00 +2°C° 0 mm 5 mps 747 mmHg 68%
    14:00 +4°C° 0 mm 4 mps 747 mmHg 67%
    15:00 +3°C° 0 mm 4 mps 747 mmHg 70%
    16:00 +3°C° 0 mm 4 mps 748 mmHg 73%
    17:00 +1°C° 0 mm 4 mps 748 mmHg 76%
    18:00 +2°C° 0 mm 3 mps 748 mmHg 76%
    19:00 +1°C° 0 mm 3 mps 748 mmHg 77%
    20:00 +1°C° 0 mm 3 mps 748 mmHg 78%
    21:00 +1°C° 0 mm 3 mps 749 mmHg 81%
    22:00 +1°C° 0 mm 3 mps 749 mmHg 84%
    23:00 +2°C° 0 mm 2 mps 749 mmHg 86%
    Show more